www.pogodaiklimat.ru

Погода и климат >> Архив погоды >> Норвегия >> Конгсёйа


ПОГОДА на Конгсёйа

  • Прогноз погоды на Конгсёйа
  • Монитор погоды на Конгсёйа

АРХИВ ПОГОДЫ на Конгсёйа

Время (UTC), дата Ветер
(напр.,м/с)
 
Видим.   Явления Облачность Т
(С)
Тd
(С)
f
(%)
Тe
(С)
Тes
(С)
Комфортность P
(гПа)
Po
(гПа)
Тmin
(С)
Tmax
(С)
R
(мм)
R24
(мм)
S
(см)
16 16.08 ЮВ 4
{6}
н/о н/о +1.0 +1.0 100 -5 -5 998.4 996.8
17 16.08 ЮВ 3
{5}
н/о н/о +0.9 +0.9 100 -4 -4 998.2 996.7
18 16.08 штиль 0
{7}
н/о н/о +1.1 +1.1 100 -0 -0 998.1 996.6 -0.8 +1.2
19 16.08 штиль 0
{1}
н/о н/о +0.9 +0.9 100 -1 -1 998.3 996.7
20 16.08 СЗ 3
{4}
н/о н/о +0.8 +0.8 100 -4 -4 998.4 996.9
21 16.08 З 3
{5}
н/о н/о +0.1 +0.1 100 -5 -5 998.6 997.1
22 16.08 З 4
{5}
н/о н/о -0.5 -0.5 100 -6 -6 999.1 997.6
23 16.08 З 2
{4}
н/о н/о -1.1 -1.1 100 -5 -5 999.6 998.1
00 17.08 Ю 4
{5}
н/о н/о -1.4 -1.4 100 -7 -7 999.9 998.3
01 17.08 Ю 3
{4}
н/о н/о -1.1 -1.1 100 -6 -6 999.9 998.3
02 17.08 Ю 3
{5}
н/о н/о -0.5 -0.5 100 -6 -6 1000.1 998.6
03 17.08 Ю 5
{5}
н/о н/о -0.4 -0.4 100 -7 -7 1000.1 998.5
05 17.08 Ю 5
{6}
н/о н/о -0.1 -0.1 100 -7 -7 1000.4 998.8
06 17.08 ЮЗ 2 н/о н/о +0.1 +0.1 100 -4 -4 1000.7 999.1
07 17.08 ЮЗ 4
{5}
н/о н/о +0.1 +0.1 100 -6 -6 1000.7 999.2
08 17.08 Ю 4
{5}
н/о н/о +0.1 +0.1 100 -6 -6 1001.0 999.4
09 17.08 ЮЗ 5
{6}
н/о н/о +0.5 +0.4 99 -6 -6 1001.4 999.8
10 17.08 ЮЗ 3
{5}
н/о н/о +0.9 -0.1 93 -4 -4 1001.9 1000.3
11 17.08 Ю 3
{3}
н/о н/о +1.0 -0.3 91 -4 -4 1002.4 1000.8
12 17.08 Ю 2
{6}
н/о н/о +0.9 -0.4 91 -3 -3 1002.9 1001.3
13 17.08 ЮЗ 1
{3}
н/о н/о +0.7 0.0 95 -1 -1 1003.3 1001.7
14 17.08 Ю 2
{3}
н/о н/о +0.2 +0.1 99 -4 -4 1003.6 1002.1
15 17.08 Ю 1
{3}
н/о н/о +0.5 +0.4 99 -2 -2 1003.7 1002.2
16 17.08 Ю 2
{2}
н/о н/о +1.0 0.0 93 -3 -3 1004.0 1002.4
17 17.08 Ю 2
{4}
н/о н/о +0.2 +0.1 99 -4 -4 1004.4 1002.8
18 17.08 Ю 3
{4}
н/о н/о 0.0 0.0 100 -5 -5 1004.6 1003.1 -0.1 +1.3
19 17.08 Ю 3
{4}
н/о н/о -0.2 -0.2 100 -5 -5 1004.8 1003.2
20 17.08 Ю 5
{5}
н/о н/о +0.3 +0.3 100 -6 -6 1004.8 1003.3
21 17.08 Ю 3
{5}
н/о н/о +0.6 +0.5 99 -4 -4 1005.2 1003.6
22 17.08 Ю 3
{4}
н/о н/о +0.4 +0.1 98 -4 -4 1005.6 1004.0
23 17.08 Ю 4
{4}
н/о н/о +0.5 +0.5 100 -5 -5 1005.8 1004.3
00 18.08 Ю 4
{5}
н/о н/о +0.2 +0.2 100 -6 -6 1006.0 1004.4
01 18.08 Ю 4
{5}
н/о н/о 0.0 0.0 100 -6 -6 1006.3 1004.7
02 18.08 Ю 4
{5}
н/о н/о -0.2 -0.2 100 -6 -6 1006.6 1005.0
03 18.08 Ю 4
{5}
н/о н/о 0.0 0.0 100 -6 -6 1006.8 1005.2
04 18.08 Ю 3
{4}
н/о н/о -0.1 -0.1 100 -5 -5 1006.9 1005.3
05 18.08 Ю 2
{4}
н/о н/о -0.1 -0.1 100 -4 -4 1007.1 1005.5
06 18.08 Ю 3
{5}
н/о н/о +0.1 +0.1 100 -5 -5 1007.3 1005.7 -0.3 +0.7
07 18.08 Ю 2
{4}
н/о н/о +0.5 +0.5 100 -3 -3 1007.7 1006.1
08 18.08 Ю 4
{4}
н/о н/о +0.6 0.0 96 -5 -5 1007.8 1006.2
09 18.08 Ю 4
{5}
н/о н/о +0.5 +0.2 98 -5 -5 1008.1 1006.5
10 18.08 Ю 4
{5}
н/о н/о +0.7 +0.3 97 -5 -5 1008.2 1006.7
11 18.08 Ю 3
{5}
н/о н/о +0.9 +0.1 94 -4 -4 1008.7 1007.1
12 18.08 Ю 3
{5}
н/о н/о +0.6 -0.1 95 -4 -4 1009.1 1007.5
13 18.08 Ю 4
{4}
н/о н/о +0.6 +0.3 98 -5 -5 1009.2 1007.6
14 18.08 Ю 3
{5}
н/о н/о +0.5 +0.2 98 -4 -4 1009.4 1007.8
15 18.08 Ю 4
{5}
н/о н/о +0.6 +0.5 99 -5 -5 1009.6 1008.0
16 18.08 Ю 3
{4}
н/о н/о +0.4 +0.4 100 -4 -4 1010.0 1008.4
18 18.08 Ю 4 н/о н/о -0.2 -0.2 100 -6 -6 1010.4 1008.8
19 18.08 Ю 4
{5}
н/о н/о -0.2 -0.2 100 -6 -6 1010.6 1009.0
20 18.08 Ю 4
{5}
н/о н/о -0.2 -0.2 100 -6 -6 1010.8 1009.2
21 18.08 Ю 4
{5}
н/о н/о -0.2 -0.2 100 -6 -6 1011.1 1009.5
22 18.08 Ю 5
{5}
н/о н/о +0.1 +0.1 100 -6 -6 1011.5 1009.9
23 18.08 ЮЗ 1
{5}
н/о н/о +0.1 +0.1 100 -2 -2 1011.5 1010.0
00 19.08 штиль 0
{5}
н/о н/о +0.5 +0.5 100 -1 -1 1011.6 1010.0
01 19.08 ЮВ 1
{2}
н/о н/о +0.9 +0.9 100 -1 -1 1011.5 1009.9
02 19.08 штиль 0
{2}
н/о н/о +1.2 +0.4 94 -0 -0 1011.7 1010.1
03 19.08 В 3
{3}
н/о н/о +0.6 +0.6 100 -4 -4 1011.6 1010.1
04 19.08 СВ 3
{4}
н/о н/о 0.0 0.0 100 -5 -5 1011.5 1009.9
05 19.08 В 3
{4}
н/о н/о +0.1 +0.1 100 -5 -5 1011.5 1009.9
06 19.08 В 3
{4}
н/о н/о +0.1 +0.1 100 -5 -5 1011.5 1009.9 -0.2 +1.4
07 19.08 В 3
{4}
н/о н/о +0.4 +0.4 100 -4 -4 1011.5 1009.9
08 19.08 СВ 3
{4}
н/о н/о +0.6 +0.6 100 -4 -4 1011.4 1009.8
09 19.08 СВ 4
{5}
н/о н/о +0.9 +0.1 94 -5 -5 1011.2 1009.6
10 19.08 СВ 5
{6}
н/о н/о +0.5 +0.5 100 -6 -6 1011.0 1009.4
11 19.08 СВ 6
{6}
н/о н/о +0.7 +0.7 100 -6 -6 1010.9 1009.3
12 19.08 СВ 6
{7}
н/о н/о +0.9 -0.1 93 -6 -6 1010.9 1009.3
13 19.08 СВ 9
{10}
н/о н/о +0.5 +0.5 100 -8 -8 1010.0 1008.4
14 19.08 СВ 7
{10}
н/о н/о +0.2 +0.2 100 -7 -7 1010.3 1008.7
15 19.08 СВ 7
{9}
н/о н/о +0.2 +0.2 100 -7 -7 1010.2 1008.6
16 19.08 СВ 8
{9}
н/о н/о 0.0 0.0 100 -8 -8 1010.0 1008.4
17 19.08 СВ 9
{10}
н/о н/о -0.1 -0.1 100 -8 -8 1009.7 1008.1
18 19.08 СВ 9
{10}
н/о н/о -0.4 -0.4 100 -9 -9 1009.6 1008.1 -0.4 +1.3
19 19.08 СВ 8
{11}
н/о н/о -0.6 -0.6 100 -9 -9 1009.9 1008.3
21 19.08 СВ 7
{9}
н/о н/о -0.5 -0.5 100 -8 -8 1009.4 1007.8
22 19.08 СВ 9
{10}
н/о н/о -0.5 -0.5 100 -9 -9 1009.1 1007.5
23 19.08 СВ 8
{10}
н/о н/о -0.4 -0.4 100 -8 -8 1008.9 1007.4
00 20.08 СВ 9 н/о н/о -0.4 -0.4 100 -9 -9 1008.9 1007.4
01 20.08 СВ 9
{10}
н/о н/о -0.4 -0.4 100 -9 -9 1008.6 1007.0
02 20.08 СВ 11
{12}
н/о н/о -0.3 -0.4 99 -9 -9 1008.1 1006.5
03 20.08 СВ 9
{12}
н/о н/о -0.4 -0.4 100 -9 -9 1007.7 1006.2
04 20.08 СВ 6
{8}
н/о н/о -0.4 -0.4 100 -7 -7 1007.2 1005.6
05 20.08 СВ 4
{6}
н/о н/о -0.3 -0.3 100 -6 -6 1006.2 1004.7
06 20.08 СВ 3
{12}
н/о н/о -0.2 -0.2 100 -5 -5 1005.3 1003.8
07 20.08 СВ 3
{3}
н/о н/о -0.2 -0.2 100 -5 -5 1004.7 1003.2
08 20.08 СВ 2
{3}
н/о н/о -0.2 -0.2 100 -4 -4 1004.4 1002.8
09 20.08 СВ 2
{3}
н/о н/о -0.1 -0.1 100 -4 -4 1004.0 1002.4
10 20.08 СВ 9
{11}
н/о н/о -0.1 -0.1 100 -8 -8 1003.3 1001.7
11 20.08 СВ 8
{10}
н/о н/о -0.2 -0.2 100 -8 -8 1002.8 1001.2
12 20.08 СВ 6
{11}
н/о н/о -0.2 -0.2 100 -7 -7 1002.1 1000.5
13 20.08 СВ 10
{11}
н/о н/о -0.1 -0.1 100 -9 -9 1001.4 999.8
14 20.08 СВ 11
{11}
н/о н/о -0.2 -0.2 100 -9 -9 1000.7 999.1
15 20.08 СВ 8
{12}
н/о н/о -0.2 -0.2 100 -8 -8 1000.3 998.8
16 20.08 СВ 5
{8}
н/о н/о -0.2 -0.2 100 -7 -7 999.9 998.4
17 20.08 СВ 6
{6}
н/о н/о -0.2 -0.2 100 -7 -7 999.2 997.7
18 20.08 СВ 4
{12}
н/о н/о -0.2 -0.2 100 -6 -6 999.4 997.8 0.0
19 20.08 СВ 7
{8}
н/о н/о -0.2 -0.2 100 -8 -8 998.6 997.0
20 20.08 СВ 7
{9}
н/о н/о -0.2 -0.2 100 -8 -8 998.3 996.7
21 20.08 СВ 5
{7}
н/о н/о -0.3 -0.3 100 -7 -7 997.7 996.1
22 20.08 СВ 3
{5}
н/о н/о -0.3 -0.3 100 -5 -5 997.6 996.0
23 20.08 СВ 2
{4}
н/о н/о -0.4 -0.4 100 -4 -4 997.3 995.8
00 21.08 СВ 2
{9}
н/о н/о -0.3 -0.3 100 -4 -4 997.5 996.0
01 21.08 СВ 2
{2}
н/о н/о -0.3 -0.3 100 -4 -4 997.7 996.1
02 21.08 СВ 2
{2}
н/о н/о -0.3 -0.3 100 -4 -4 997.7 996.1
03 21.08 СВ 2
{2}
н/о н/о -0.3 -0.3 100 -4 -4 998.0 996.4
04 21.08 СВ 1
{2}
н/о н/о -0.2 -0.2 100 -3 -3 998.4 996.8
05 21.08 СВ 1
{1}
н/о н/о -0.1 -0.1 100 -2 -2 998.9 997.4
06 21.08 С 12
{15}
н/о н/о 0.0 0.0 100 -9 -9 999.1 997.6 0.0
07 21.08
{15}
н/о н/о +0.1 +0.1 100 1000.0 998.5
08 21.08
{15}
н/о н/о 0.0 -0.6 96 1001.0 999.4
09 21.08
{15}
н/о н/о 0.0 -1.0 93 1002.0 1000.5
10 21.08 С 11
{14}
н/о н/о 0.0 -1.5 90 -9 -9 1002.9 1001.3
11 21.08 С 10
{13}
н/о н/о +0.2 -1.8 86 -8 -8 1003.8 1002.2
12 21.08
{15}
н/о н/о +0.1 -2.3 84 1004.7 1003.2
13 21.08 С 7
{11}
н/о н/о +0.2 -2.0 85 -7 -7 1005.8 1004.2
14 21.08 С 6
{7}
н/о н/о +0.3 -1.6 87 -6 -6 1006.5 1005.0
15 21.08 С 4
{6}
н/о н/о +0.2 -2.0 85 -5 -5 1007.1 1005.5
16 21.08 С 3
{4}
н/о н/о +0.3 -1.4 88 -4 -4 1008.0 1006.4
17 21.08 З 2
{3}
н/о н/о 0.0 -0.1 99 -4 -4 1008.9 1007.3
18 21.08 ЮЗ 2
{11}
н/о н/о -0.4 -0.4 100 -4 -4 1009.8 1008.3 -0.4 +0.4
19 21.08 СЗ 3
{3}
н/о н/о +0.4 -1.3 88 -4 -4 1010.4 1008.9
20 21.08 С 3
{4}
н/о н/о +0.4 -1.3 88 -4 -4 1011.0 1009.4
21 21.08 СЗ 3
{4}
н/о н/о -0.1 -1.2 92 -5 -5 1011.6 1010.1
22 21.08 СЗ 4
{5}
н/о н/о -0.7 -2.5 88 -6 -6 1012.1 1010.5
23 21.08 СЗ 4
{5}
н/о н/о -1.0 -2.7 88 -7 -7 1012.8 1011.3
00 22.08 СВ 3
{5}
н/о н/о -1.8 -2.3 96 -7 -7 1013.5 1011.9
01 22.08 В 5
{6}
н/о н/о -1.9 -2.4 96 -9 -9 1013.9 1012.4
02 22.08 В 6
{7}
н/о н/о -2.3 -3.3 93 -10 -10 1014.5 1012.9
03 22.08 СВ 5
{8}
н/о н/о -2.8 -3.5 95 -10 -10 1015.0 1013.4
04 22.08 СВ 5
{6}
н/о н/о -2.9 -3.3 97 -10 -10 1015.4 1013.8
05 22.08 СВ 6
{7}
н/о н/о -2.6 -3.3 95 -10 -10 1015.5 1013.9
06 22.08 СВ 6
{8}
н/о н/о -2.3 -3.3 93 -10 -10 1016.0 1014.4 -3.0 +0.6
07 22.08 СВ 4
{7}
н/о н/о -2.5 -3.7 91 -9 -9 1016.6 1015.0
08 22.08 СВ 3
{6}
н/о н/о -2.5 -3.9 90 -8 -8 1017.1 1015.5
09 22.08 СВ 3
{4}
н/о н/о -2.5 -3.6 92 -8 -8 1017.5 1015.9
10 22.08 СВ 2
{4}
н/о н/о -2.2 -3.3 92 -6 -6 1017.7 1016.1
11 22.08 СВ 2
{3}
н/о н/о -2.1 -3.7 89 -6 -6 1017.8 1016.2
12 22.08 штиль 0
{7}
н/о н/о -2.0 -4.2 85 -3 -3 1018.0 1016.4
13 22.08 Ю 1
{3}
н/о н/о -2.1 -4.2 86 -4 -4 1018.2 1016.6
14 22.08 Ю 1
{3}
н/о н/о -2.3 -3.7 90 -5 -5 1018.5 1016.9
15 22.08 Ю 1
{3}
н/о н/о -2.1 -4.0 87 -4 -4 1018.5 1016.9
16 22.08 В 2
{4}
н/о н/о -2.3 -3.7 90 -6 -6 1018.4 1016.8
17 22.08 В 3
{3}
н/о н/о -2.3 -3.3 93 -8 -8 1018.5 1016.9
18 22.08 В 3
{4}
н/о н/о -2.4 -3.3 94 -8 -8 1018.4 1016.8 -2.6 -1.9
19 22.08 В 3
{4}
н/о н/о -2.7 -3.3 96 -8 -8 1018.7 1017.1
20 22.08 В 4
{5}
н/о н/о -2.8 -3.3 96 -9 -9 1018.7 1017.1
21 22.08 ЮВ 3
{5}
н/о н/о -2.6 -3.6 93 -8 -8 1018.9 1017.3
22 22.08 ЮВ 5
{5}
н/о н/о -3.0 -3.6 96 -10 -10 1019.0 1017.4
23 22.08 ЮВ 3
{5}
н/о н/о -3.0 -3.5 96 -8 -8 1019.0 1017.4
00 23.08 ЮВ 3
{5}
н/о н/о -2.8 -2.8 100 -8 -8 1019.1 1017.5
01 23.08 ЮВ 3
{5}
н/о н/о -2.7 -2.7 100 -8 -8 1019.0 1017.4
02 23.08 ЮВ 3
{4}
н/о н/о -2.6 -2.6 100 -8 -8 1018.9 1017.3
03 23.08 ЮВ 3
{3}
н/о н/о -2.5 -2.5 100 -8 -8 1018.8 1017.2
04 23.08 ЮВ 3
{4}
н/о н/о -2.2 -2.4 99 -8 -8 1018.9 1017.3
05 23.08 ЮВ 3
{4}
н/о н/о -2.2 -2.9 95 -7 -7 1018.9 1017.3
06 23.08 ЮВ 3
{5}
н/о н/о -2.2 -2.8 96 -7 -7 1019.3 1017.7 -3.1 -2.1
07 23.08 В 4
{5}
н/о н/о -2.6 -3.0 97 -9 -9 1019.3 1017.7
08 23.08 В 4
{5}
н/о н/о -2.6 -2.7 99 -9 -9 1019.5 1017.9
09 23.08 В 3
{4}
н/о н/о -2.7 -2.8 99 -8 -8 1019.7 1018.1
10 23.08 ЮВ 2
{4}
н/о н/о -2.5 -3.2 95 -7 -7 1019.9 1018.3
11 23.08 В 3
{3}
н/о н/о -2.1 -2.8 95 -7 -7 1019.9 1018.3
12 23.08 В 3
{5}
н/о н/о -1.9 -2.8 94 -7 -7 1019.9 1018.3
13 23.08 В 3
{4}
н/о н/о -1.6 -2.1 96 -7 -7 1020.0 1018.4
14 23.08 ЮВ 2
{4}
н/о н/о -1.4 -2.0 96 -5 -5 1020.0 1018.4
15 23.08 ЮВ 2
{4}
н/о н/о -1.4 -1.9 96 -5 -5 1020.0 1018.4

 

Местоположение метеостанции Конгсёйа (Норвегия): широта 78.93 долгота 28.89 высота над уровнем моря 20 м.

В архиве по умолчанию представлена погода на Конгсёйа за последнюю неделю. Архивные данные за месяц целиком и за предыдущие месяцы, начиная с января 2011 года, Вы можете получить, выбрав интересующий диапазон дат из раскрывающегося списка и нажав кнопку "Ввод!".


*Определитесь, кто Вы:
робот инопланетянин человек

Внимание! Время в таблицах - всемирное. Для получения местного времени необходимо прибавить поправку, которая равна 1 ч.

Смотрите также архив погоды в соседних городах и на ближайших метеорологических станциях:

Погода на Острове Белый (Норвегия) (137 км)
Погода на Эдже (Норвегия) (153 км)
Погода на Острове Карла XII (Норвегия) (206 км)
Погода в Пирамиде (Норвегия) (272 км)
Погода в Хопене (Норвегия) (284 км)
Погода на Верлегенхукен (Норвегия) (284 км)
Погода в Свальбард аэропорту (Норвегия) (303 км)
Погода в Баренцбурге (Шпицберген, Россия) (337 км)
Погода на Акселойа (Норвегия) (346 км)
Погода в Ню-Олесунн (Норвегия) (361 км)

Пояснения к столбцам:

Ветер - указаны скорость ветра в м/с - средняя за 10 мин, порывы в срок и между сроками (в фигурных скобках) и направление, откуда дует ветер: С - северный, СВ - северо-восточный, В - восточный, ЮВ - юго-восточный, Ю - южный, ЮЗ - юго-западный, З - западный, СЗ - северо-западный.
Видимость - горизонтальная дальность видимости в метрах или километрах. При видимости от 1 до 10 км при отсутствии осадков обычно наблюдается дымка, при ухудшении видимости до 1 км и менее - туман. В сухую погоду видимость может ухудшаться дымом, пылью или мглою.
Явления - указаны атмосферные явления, наблюдавшиеся в срок или в последний час перед сроком; фигурными скобками обозначены явления, наблюдавшиеся между сроками (за 1-3 часа до срока); квадратными скобками обозначены град или гололедные отложения с указанием их диаметра в мм.
Облачность - указаны через наклонную черту общая и нижняя облачность в баллах и высота нижней границы облаков в метрах; квадратными скобками обозначены формы облаков: Ci - перистые, Cs - перисто-слоистые, Cc - перисто-кучевые, Ac - высококучевые, As - высокослоистые, Sc - слоисто-кучевые, Ns - слоисто-дождевые, Cu - кучевые, Cb - кучево-дождевые. Подробнее классификацию облаков см. в Атласе облаков (PDF).
T - Температура воздуха - температура, измеренная на высоте 2 м над землей.
Td - Температура точки росы - температура, при понижении до которой содержащийся в воздухе водяной пар достигнет насыщения.
f - Относительная влажность воздуха - влажноcть воздуха, измеренная на высоте 2 м над землей.
Te - Эффективная температура - температура, которую ощущает одетый по сезону человек в тени. Характеристика душности погоды. При расчете учитывается влияние влажности воздуха и скорости ветра на теплоощущения человека.
Tes - Эффективная температура на солнце - температура, которую ощущает человек, с поправкой на солнечный нагрев. Характеристика знойности погоды. Зависит от высоты солнца над горизонтом, облачности и скорости ветра. Ночью, в пасмурную погоду, а также при ветре 12 м/с и более поправка равна нулю.
P - Атмосферное давление - приведенное к уровню моря атмосферное давление.
Po - Атмосферное давление - измеренное на уровне метеостанции атмосферное давление.
Tmin - Минимальная температура - минимум температуры воздуха на высоте 2 м над землей.
Tmax - Максимальная температура - максимум температуры воздуха на высоте 2 м над землей.
R - Количество осадков - Количество выпавших осадков за период времени, мм. При наведении курсора мыши на число - период времени, за который выпало указанное количество осадков.
R24 - Количество осадков - Количество выпавших осадков за 24 часа, мм.
S - Снежный покров - Высота снежного покрова, см. При наведении курсора мыши на число - состояние снежного покрова и степень покрытия местности в баллах.